Temperature
7 10 10 10 9 9 8 9 9 10 9 8 9 10 11 10 10 9 9 9 8 7 7 6 6 6 6 6 5 5 5 5 5 5 6 6 6 7 7 7 7 8 8 8
9 9 9 8 7 7 8 8 9 10 8 8 8 9 10 10 9 9 9 8 8 7 7 6 6 6 5 5 5 5 5 5 5 5 5 5 6 6 6 6 7 7 7 8
9 9 7 7 7 7 8 8 9 8 8 8 7 10 11 10 9 8 8 8 7 7 7 6 6 5 5 5 5 5 5 5 5 5 5 5 5 5 5 6 6 7 7 7
8 7 6 7 7 7 8 8 7 7 7 9 7 10 12 10 10 9 9 8 8 7 6 6 5 5 5 5 5 5 5 4 4 4 4 5 5 5 5 6 6 7 7 7
8 6 6 7 7 7 8 6 6 6 6 6 7 6 11 10 9 10 10 8 7 6 6 6 5 5 5 5 4 4 4 4 4 4 4 4 4 5 5 5 5 6 6 6
7 6 6 7 6 6 6 6 6 5 6 6 7 7 11 11 10 10 9 8 7 6 6 5 5 5 5 5 4 4 4 4 4 4 4 4 4 4 4 5 5 5 6 6
7 6 6 5 6 6 6 7 8 8 8 9 7 6 9 11 9 9 8 7 7 6 5 5 5 5 4 4 4 4 4 4 4 4 4 4 4 4 4 4 5 5 5 5
8 9 6 5 6 7 6 7 8 9 10 10 7 7 10 9 8 7 7 6 6 6 5 5 5 4 4 4 4 3 3 3 3 3 3 3 3 4 4 4 4 5 5 5
8 8 5 5 5 6 6 6 6 6 5 5 9 8 9 9 8 8 7 6 6 6 5 5 5 4 4 4 3 3 3 3 3 3 3 3 3 3 3 4 4 4 5 5
6 6 5 4 4 4 5 5 5 6 6 8 9 9 10 9 9 9 8 7 6 5 5 5 4 4 4 3 3 3 3 3 3 3 3 3 3 3 3 3 4 4 4 4
5 5 5 4 4 5 4 4 5 6 5 7 8 10 10 8 9 8 8 7 6 5 5 4 4 4 3 3 3 3 3 3 3 3 2 2 2 2 3 3 3 4 4 4
4 5 6 5 4 4 4 5 5 5 5 4 6 9 9 8 8 7 7 6 6 5 4 4 4 3 3 3 3 2 2 2 2 2 2 2 2 2 2 3 3 3 3 4
3 3 5 6 4 2 2 3 3 4 4 5 5 8 9 7 7 6 6 6 5 5 4 4 4 3 3 3 2 2 2 2 2 2 2 2 2 2 2 2 3 3 3 3
4 3 5 8 7 4 2 2 2 2 3 5 5 7 8 8 7 7 6 5 5 4 4 3 3 3 3 2 2 2 2 2 2 1 1 1 1 1 2 2 2 2 3 3
3 3 3 5 5 4 4 3 2 2 4 4 6 6 7 8 7 6 5 5 4 4 3 3 3 2 2 2 2 2 1 1 1 1 1 1 1 1 1 1 2 2 3 3
2 3 3 3 4 3 3 4 4 3 3 4 4 5 7 7 6 5 5 4 4 3 3 2 2 2 2 2 1 1 1 1 1 1 1 1 1 1 1 1 2 2 2 3
2 2 2 4 4 3 3 5 4 4 4 4 4 6 6 6 5 5 4 3 3 2 2 2 2 1 1 1 1 1 1 0 0 0 0 0 0 1 1 1 2 2 2 2
1 2 2 3 2 3 6 5 5 4 4 4 4 5 5 5 4 3 3 3 3 2 2 1 1 1 1 1 1 0 0 0 0 -0 -0 -0 -0 0 1 1 2 2 2 2
2 2 2 2 3 4 6 4 3 3 3 4 3 4 4 4 3 4 3 3 2 2 1 1 1 0 0 0 0 -0 -0 -0 -0 -0 -0 -0 -0 -0 0 1 1 1 2 2
0 1 2 2 2 4 6 4 3 3 3 5 4 4 4 3 3 5 3 2 2 1 1 0 0 -0 -0 -0 -0 -1 -1 -1 -1 -1 -1 -1 -0 -0 0 1 1 1 1 2
-0 0 1 2 2 4 5 2 2 3 5 5 3 3 3 3 3 3 2 1 1 1 0 0 -0 -0 -1 -1 -1 -1 -1 -1 -1 -1 -1 -1 -0 -0 0 0 1 1 1 1
1 1 1 2 2 3 4 2 3 5 4 3 3 2 2 2 2 1 1 1 0 0 -0 -0 -1 -1 -1 -1 -1 -2 -2 -2 -1 -1 -1 -1 -1 -0 0 0 0 1 1 1
2 3 3 3 4 5 3 3 3 2 2 2 2 2 1 1 1 0 0 0 -0 -0 -1 -1 -1 -1 -1 -1 -2 -2 -2 -2 -2 -2 -2 -1 -1 -1 -0 -0 -0 0 0 0
2 1 1 1 3 3 2 2 2 2 1 1 1 1 0 0 -0 -0 -0 -1 -1 -1 -1 -1 -2 -2 -2 -2 -2 -2 -2 -3 -2 -2 -2 -2 -1 -1 -1 -1 -0 -0 -0 -0
2 0 1 1 3 2 2 1 2 2 1 1 0 0 -0 -1 -1 -1 -1 -1 -1 -2 -2 -2 -2 -2 -2 -2 -2 -3 -3 -3 -3 -3 -2 -2 -2 -2 -1 -1 -1 -1 -1 -0
1 1 1 3 3 3 3 2 2 1 1 0 -0 -1 -1 -1 -1 -2 -2 -2 -2 -2 -2 -3 -3 -3 -3 -3 -3 -3 -3 -3 -3 -3 -3 -3 -2 -2 -2 -2 -1 -0 -0 -0
Wind_Speed
1 3 2 2 2 2 3 5 9 7 5 8 14 19 19 14 11 11 10 9 8 8 8 8 8 9 9 10 10 10 11 11 9 8 8 7 7 8 8 9 10 11 10 10
3 4 3 2 3 4 5 7 8 8 4 7 14 20 16 10 9 8 8 8 7 8 8 8 9 9 10 11 11 11 11 11 11 9 8 8 9 8 9 9 10 11 11 11
4 2 3 4 4 5 7 8 8 9 11 6 10 11 6 4 5 7 7 7 7 7 8 9 9 9 10 11 12 11 12 13 12 11 8 7 7 7 8 9 10 10 11 11
3 3 4 5 5 5 5 4 7 9 8 5 4 7 6 4 6 6 6 6 6 7 8 9 10 11 11 12 12 12 12 13 12 10 9 9 9 9 11 10 10 10 11 11
3 4 5 6 4 5 4 3 6 7 6 6 5 6 8 3 6 6 5 5 5 6 8 9 10 11 12 11 11 11 12 12 12 10 9 10 11 11 10 10 11 11 10 12
3 2 3 3 1 4 2 2 2 2 3 5 5 6 7 4 5 4 4 5 6 7 8 10 11 11 12 11 10 11 12 13 13 12 10 11 13 13 12 12 11 10 9 11
4 4 3 3 3 3 2 2 3 3 4 5 3 6 10 6 5 5 6 7 7 8 9 10 11 12 13 13 13 12 13 14 14 13 11 11 13 13 13 12 11 11 10 10
4 5 6 5 4 3 3 2 2 4 6 5 4 8 7 5 6 7 8 9 9 9 10 11 12 12 13 14 14 13 14 14 14 13 12 12 13 11 10 12 11 12 11 11
5 3 3 3 2 4 4 4 0 2 4 7 8 8 9 8 9 8 8 9 9 10 11 12 13 13 14 14 14 14 14 14 14 13 13 13 13 12 12 13 12 11 11 11
4 4 3 3 3 2 2 4 4 3 4 7 8 8 6 5 7 7 7 9 10 11 12 13 14 14 14 13 14 14 14 14 14 14 13 11 12 12 13 12 13 13 13 13
5 5 3 5 8 8 7 6 6 4 4 5 8 7 3 6 6 7 8 10 11 13 14 14 14 14 14 14 14 14 14 14 13 13 13 12 12 12 12 12 13 13 13 13
7 5 6 6 2 3 8 8 9 6 7 6 8 11 3 6 7 9 11 13 14 15 14 15 16 15 15 15 15 15 14 14 13 13 12 12 12 12 12 12 13 13 13 12
8 6 4 4 4 5 6 8 9 6 5 9 10 12 2 5 10 12 14 16 15 16 16 16 15 15 15 15 15 15 14 14 13 12 12 12 12 12 12 12 12 12 12 12
7 7 10 11 5 6 7 10 12 11 9 12 18 23 19 17 17 18 17 17 17 16 16 16 15 15 15 15 15 15 15 13 13 12 12 12 12 12 12 12 12 12 11 11
7 8 11 15 13 9 12 14 16 19 19 17 20 23 25 22 20 19 17 17 17 17 16 16 16 16 16 16 15 14 14 13 12 12 12 13 12 12 12 11 11 11 10 10
7 7 6 11 13 14 17 20 21 22 22 25 27 28 25 21 17 16 16 16 16 16 17 16 16 16 16 15 15 14 14 13 12 12 13 12 12 12 12 12 10 10 9 8
8 7 5 9 7 9 15 18 20 17 17 16 21 21 17 16 16 15 15 15 15 16 16 16 15 15 14 14 14 14 13 12 12 12 12 12 13 13 12 11 9 8 8 8
9 8 5 6 5 13 8 3 10 15 18 19 19 18 17 17 16 15 14 15 15 15 15 15 14 14 14 13 13 12 11 11 11 12 11 12 13 13 12 10 8 8 7 8
12 10 6 5 9 14 11 7 7 10 12 15 18 19 18 15 14 14 11 11 13 14 14 13 12 13 13 13 13 12 11 11 11 12 12 12 12 12 11 10 9 8 7 7
8 9 8 7 8 10 6 3 5 4 10 9 11 13 12 9 11 12 10 11 13 13 12 12 12 12 12 12 11 11 11 11 12 12 12 12 12 11 10 10 10 7 6 6
8 8 13 14 12 12 6 6 7 6 6 2 6 8 8 9 11 12 13 12 12 13 12 11 11 11 11 11 10 11 11 12 12 12 12 12 11 10 9 9 8 7 6 6
11 10 11 10 12 13 6 10 9 8 5 5 7 8 9 11 13 13 13 13 13 12 12 11 10 11 10 10 9 10 11 12 12 12 11 11 11 9 8 8 7 6 6 6
12 11 8 11 11 6 9 9 8 6 8 8 9 9 10 12 13 12 12 12 12 12 11 10 10 11 11 9 9 10 11 11 11 11 11 11 11 9 8 7 6 6 5 4
9 7 7 9 13 12 11 13 12 11 11 11 10 10 10 12 12 12 12 11 11 11 10 9 9 10 10 9 9 10 10 10 11 11 11 10 10 9 8 6 5 5 5 4
10 9 9 13 14 12 13 14 14 13 12 12 11 11 11 11 12 11 11 11 10 9 9 8 9 10 11 10 10 10 10 10 10 11 10 10 9 8 7 7 6 6 5 5
10 11 11 13 11 9 10 9 10 11 11 11 11 11 9 9 11 10 10 10 9 9 8 8 9 10 10 9 10 10 9 9 10 9 9 8 8 7 6 7 7 7 6 8
Wind_Direction
132 196 206 201 201 253 262 264 281 286 303 293 278 283 288 288 275 272 275 277 283 290 298 303 304 305 306 305 299 298 297 297 296 290 284 279 278 277 273 270 268 264 256 247
188 216 214 182 191 230 252 268 281 290 295 295 291 288 285 275 262 266 273 275 282 296 301 305 307 308 307 304 301 296 296 296 292 285 280 274 275 273 272 273 268 265 255 247
223 132 158 192 213 245 251 255 281 296 311 278 299 285 252 243 253 263 265 272 282 293 301 308 308 307 307 303 301 298 295 295 290 284 280 279 278 277 277 275 268 262 257 250
226 199 199 224 237 243 268 255 274 290 301 295 324 296 270 255 269 263 267 276 286 297 305 309 309 309 307 305 305 302 297 292 290 282 276 276 278 277 278 277 267 264 256 250
210 196 212 229 241 227 267 304 280 278 269 281 241 257 272 248 260 261 266 282 295 303 309 310 309 308 306 305 305 303 301 299 300 291 283 280 276 274 274 274 271 268 260 251
240 208 230 238 234 216 248 265 233 216 236 258 228 237 273 232 238 257 266 283 299 305 308 309 310 312 311 310 307 305 304 304 304 297 287 279 279 273 273 273 273 270 265 255
222 202 194 198 199 180 217 270 278 258 240 252 173 242 257 258 249 263 275 285 298 305 307 311 315 317 317 316 313 310 308 307 306 299 294 285 278 272 267 269 271 272 269 262
240 223 186 191 211 205 199 226 260 283 283 290 241 246 259 275 270 269 275 284 297 302 306 309 311 313 314 314 313 311 309 307 306 302 298 290 283 277 271 269 268 265 263 262
217 225 133 174 195 196 181 200 257 260 284 277 259 263 280 263 258 264 275 286 295 300 304 308 310 311 311 310 310 310 308 305 302 301 297 291 286 281 276 274 268 265 263 262
203 229 185 162 172 194 251 162 170 212 270 276 273 263 259 249 256 269 280 293 297 301 304 308 309 309 308 307 307 309 307 304 301 300 295 291 289 285 281 274 272 270 268 262
197 214 191 191 208 201 175 185 205 218 249 266 282 274 231 247 271 284 292 300 304 304 304 305 306 307 308 307 308 308 307 305 304 302 298 294 293 289 285 277 273 272 269 262
191 209 235 221 187 253 216 210 196 218 231 232 267 275 250 259 283 292 299 305 306 308 305 303 304 308 309 307 307 306 307 305 304 302 298 297 296 293 289 282 279 277 273 264
164 186 227 219 199 196 218 217 217 229 243 238 249 265 230 285 295 297 301 306 307 308 307 306 307 308 308 308 307 307 306 305 305 304 301 299 300 298 293 287 284 283 277 266
175 204 228 250 272 182 210 215 209 210 231 246 246 265 278 289 296 300 303 305 306 306 307 306 307 308 309 309 308 307 307 306 307 306 304 303 302 299 294 290 287 286 279 268
194 232 239 255 263 251 243 237 220 221 232 247 261 269 279 289 296 300 301 303 304 305 306 306 307 309 310 311 311 310 308 307 308 306 305 304 306 304 297 292 289 288 279 272
205 234 243 258 254 253 259 252 239 236 241 248 261 271 276 286 292 295 299 303 304 305 307 307 306 308 310 312 312 312 310 308 308 306 305 306 308 308 303 296 293 291 281 274
195 207 228 262 264 272 259 246 233 231 229 236 251 263 279 287 290 296 300 301 301 303 305 305 304 306 309 311 311 310 309 309 308 309 309 311 311 311 309 303 296 291 282 277
198 203 226 259 260 249 257 215 222 233 242 238 249 264 276 282 292 296 292 292 296 301 303 303 303 305 308 310 311 310 310 311 311 312 313 315 313 312 311 309 301 291 285 279
206 202 216 227 250 268 268 231 208 223 255 242 246 261 274 288 297 291 291 292 294 300 301 301 302 304 307 310 313 312 311 313 314 315 314 315 314 313 311 311 306 297 288 282
205 209 219 224 242 254 265 176 175 212 265 245 239 256 273 287 292 301 315 308 301 302 301 302 304 305 305 310 314 313 313 315 316 317 315 313 312 311 307 306 301 298 293 285
183 205 220 230 243 259 260 157 156 227 274 267 241 257 268 269 278 300 306 303 302 303 303 304 304 304 306 311 312 311 314 317 319 318 316 316 316 312 305 304 301 303 304 300
194 199 210 218 233 249 178 161 204 253 310 284 275 270 269 275 286 293 297 299 302 303 304 306 305 303 306 310 310 309 312 315 318 318 318 320 320 317 312 308 304 304 305 302
212 210 210 212 230 269 185 216 246 280 279 283 281 279 278 283 287 291 294 297 299 299 301 303 301 302 305 309 309 307 312 317 319 318 318 320 320 317 318 315 315 315 315 314
225 220 226 242 253 257 249 254 260 262 267 276 277 278 277 280 285 288 291 294 297 298 298 300 301 301 305 311 310 307 312 316 317 316 318 320 322 321 323 320 313 311 313 317
225 200 226 249 263 272 259 250 256 263 265 271 274 275 275 276 280 284 288 291 294 297 299 300 299 300 304 309 308 310 313 315 314 314 316 318 319 319 321 321 315 311 309 305
225 218 226 248 253 247 265 264 262 262 266 269 273 277 276 271 276 283 285 289 292 295 298 300 300 301 305 307 308 312 314 312 311 312 315 316 315 317 318 319 320 318 310 316
Height
1504 1502 1498 1499 1502 1503 1502 1500 1496 1492 1495 1495 1485 1477 1471 1472 1472 1471 1470 1470 1469 1468 1466 1464 1462 1459 1456 1453 1450 1447 1445 1442 1439 1437 1434 1431 1430 1430 1429 1428 1427 1427 1428 1428
1501 1499 1501 1503 1505 1505 1503 1500 1493 1491 1495 1494 1483 1474 1467 1467 1467 1467 1466 1466 1465 1464 1462 1461 1458 1455 1452 1449 1446 1442 1439 1436 1434 1432 1429 1426 1424 1423 1423 1422 1421 1420 1421 1422
1495 1500 1503 1504 1503 1503 1499 1497 1493 1494 1492 1490 1488 1464 1459 1462 1464 1464 1463 1463 1462 1461 1459 1457 1455 1452 1449 1445 1441 1437 1434 1431 1428 1426 1423 1420 1419 1417 1416 1415 1414 1414 1415 1415
1498 1501 1503 1502 1500 1501 1494 1496 1498 1497 1494 1483 1489 1468 1451 1457 1459 1459 1459 1459 1458 1458 1456 1454 1451 1448 1445 1441 1437 1432 1429 1425 1422 1420 1417 1415 1413 1411 1409 1409 1407 1407 1407 1408
1495 1500 1500 1499 1498 1500 1495 1499 1498 1497 1495 1494 1486 1486 1452 1456 1454 1453 1455 1455 1455 1455 1453 1451 1448 1445 1441 1437 1432 1428 1425 1421 1417 1415 1412 1409 1407 1405 1403 1402 1400 1400 1400 1400
1497 1500 1499 1497 1499 1500 1499 1498 1498 1498 1494 1487 1479 1479 1450 1447 1449 1450 1452 1453 1453 1452 1450 1448 1444 1441 1437 1433 1428 1424 1420 1416 1412 1409 1406 1403 1401 1399 1397 1395 1394 1393 1393 1393
1492 1496 1498 1499 1497 1498 1497 1493 1483 1477 1476 1466 1478 1477 1454 1446 1450 1451 1451 1451 1450 1448 1446 1444 1440 1437 1433 1428 1424 1420 1416 1411 1408 1404 1400 1397 1396 1393 1390 1389 1387 1386 1386 1385
1485 1481 1493 1496 1494 1493 1495 1492 1486 1476 1463 1457 1473 1465 1446 1448 1450 1450 1450 1449 1448 1446 1443 1440 1437 1434 1429 1425 1420 1416 1410 1406 1402 1398 1394 1392 1389 1386 1384 1382 1380 1379 1378 1377
1482 1482 1494 1496 1496 1494 1493 1491 1494 1492 1493 1487 1459 1454 1448 1445 1445 1446 1447 1446 1444 1443 1440 1437 1434 1430 1426 1421 1417 1412 1407 1402 1397 1393 1389 1386 1382 1379 1377 1375 1374 1372 1371 1371
1485 1486 1490 1495 1497 1498 1495 1494 1495 1491 1483 1464 1448 1447 1440 1439 1439 1441 1443 1442 1440 1439 1436 1433 1430 1426 1422 1417 1412 1407 1402 1397 1392 1388 1384 1380 1376 1373 1370 1368 1366 1365 1365 1364
1487 1487 1488 1493 1490 1486 1496 1496 1491 1487 1485 1473 1453 1437 1436 1439 1438 1439 1440 1439 1438 1436 1433 1429 1426 1422 1418 1413 1408 1403 1397 1392 1387 1382 1378 1374 1370 1367 1363 1361 1359 1358 1357 1356
1485 1485 1480 1483 1489 1490 1488 1485 1486 1483 1482 1482 1466 1444 1435 1438 1438 1439 1438 1437 1435 1432 1429 1425 1421 1417 1412 1408 1403 1398 1393 1387 1382 1378 1373 1368 1364 1360 1357 1354 1352 1352 1350 1349
1484 1485 1477 1472 1486 1492 1489 1487 1486 1485 1481 1474 1466 1441 1434 1437 1437 1437 1435 1433 1431 1428 1425 1421 1417 1413 1408 1403 1398 1393 1388 1382 1377 1373 1368 1363 1358 1354 1351 1348 1346 1345 1343 1342
1480 1480 1471 1458 1456 1472 1480 1482 1483 1483 1476 1464 1454 1437 1430 1432 1432 1432 1431 1429 1427 1424 1420 1417 1412 1408 1404 1399 1393 1388 1382 1377 1372 1368 1363 1358 1353 1349 1345 1342 1340 1337 1336 1336
1477 1473 1470 1465 1465 1469 1468 1469 1474 1474 1464 1458 1440 1435 1428 1428 1429 1429 1427 1425 1422 1419 1415 1412 1408 1403 1398 1394 1388 1383 1378 1372 1368 1363 1358 1353 1348 1344 1340 1336 1333 1331 1330 1330
1473 1471 1469 1465 1462 1464 1462 1456 1458 1460 1458 1451 1444 1435 1427 1428 1427 1425 1423 1421 1418 1414 1411 1407 1403 1398 1393 1389 1383 1378 1373 1368 1363 1358 1353 1348 1344 1339 1335 1331 1328 1326 1325 1325
1468 1469 1467 1455 1458 1461 1450 1438 1442 1443 1441 1441 1436 1426 1423 1424 1423 1422 1420 1417 1414 1410 1406 1402 1398 1394 1389 1384 1379 1373 1368 1364 1359 1354 1348 1344 1339 1335 1330 1327 1324 1323 1321 1321
1462 1463 1462 1457 1460 1452 1425 1430 1431 1433 1431 1431 1427 1423 1422 1421 1419 1418 1416 1413 1409 1406 1402 1398 1393 1389 1385 1380 1375 1370 1365 1360 1355 1350 1345 1340 1335 1331 1327 1323 1321 1320 1318 1317
1456 1458 1457 1455 1447 1430 1423 1426 1429 1430 1425 1422 1422 1419 1418 1418 1416 1411 1410 1408 1405 1402 1398 1394 1389 1385 1380 1376 1371 1366 1361 1357 1351 1346 1341 1337 1332 1328 1324 1321 1319 1317 1316 1314
1453 1454 1454 1451 1445 1429 1413 1423 1425 1428 1421 1414 1415 1414 1415 1415 1411 1405 1405 1403 1400 1397 1393 1389 1385 1380 1376 1371 1367 1362 1358 1353 1348 1343 1338 1334 1329 1326 1322 1319 1316 1315 1313 1311
1449 1449 1447 1442 1436 1420 1414 1421 1425 1423 1410 1410 1410 1411 1411 1411 1408 1405 1402 1399 1396 1392 1389 1384 1380 1376 1372 1368 1363 1358 1354 1349 1345 1340 1335 1331 1327 1323 1320 1317 1315 1313 1311 1309
1432 1435 1436 1434 1432 1419 1413 1418 1416 1408 1407 1408 1407 1407 1407 1405 1403 1401 1398 1394 1391 1387 1384 1380 1376 1372 1368 1364 1360 1355 1351 1347 1342 1337 1332 1328 1324 1321 1318 1315 1313 1311 1309 1307
1420 1418 1416 1417 1410 1406 1408 1407 1406 1406 1405 1405 1404 1404 1403 1401 1398 1396 1393 1390 1387 1383 1380 1376 1372 1368 1364 1361 1357 1352 1348 1343 1338 1334 1330 1326 1322 1319 1317 1314 1311 1309 1308 1306
1414 1415 1415 1412 1404 1404 1404 1403 1402 1402 1402 1401 1400 1399 1398 1396 1393 1391 1388 1385 1382 1379 1376 1372 1368 1364 1360 1357 1354 1350 1345 1340 1336 1331 1327 1324 1320 1318 1315 1314 1312 1309 1307 1305
1403 1409 1407 1404 1399 1400 1398 1397 1397 1397 1396 1396 1395 1394 1392 1390 1388 1386 1384 1381 1378 1374 1371 1368 1364 1361 1357 1354 1350 1346 1342 1338 1334 1330 1326 1323 1319 1317 1314 1312 1310 1308 1306 1305
1397 1398 1398 1392 1391 1393 1391 1391 1391 1391 1390 1390 1389 1388 1386 1385 1383 1381 1379 1376 1373 1370 1367 1364 1360 1357 1354 1350 1347 1343 1340 1336 1332 1328 1324 1321 1319 1316 1313 1311 1308 1307 1306 1304